Regional Weather Roundup
Issued by NWS

Home | Current Version | Previous Version | Graphics & Text | Print | Product List | Glossary Off
Versions: 1 2 3 4 5 6 7 8 9 10 11 12 13 14 15 16 17 18 19 20 21 22 23 24 25 26 27 28 29 30 31 32 33 34 35 36 37 38 39 40 41 42 43 44 45 46 47 48 49 50

000
ASUS43 KDTX 270210
RWRMI
MICHIGAN HOURLY REGIONAL WEATHER ROUNDUP
NATIONAL WEATHER SERVICE DETROIT/PONTIAC MI
1000 PM EDT MON SEP 26 2016

NOTE: "FAIR" INDICATES FEW OR NO CLOUDS BELOW 12,000 FEET WITH NO
SIGNIFICANT WEATHER AND/OR OBSTRUCTION TO VISIBILITY.

MIZ047>049-052>055-059>063-066>070-074>076-081>083-270300-
SOUTHEAST LOWER MICHIGAN

CITY           SKY/WX    TMP DP  RH WIND       PRES   REMARKS
ADRIAN         CLEAR     53  44  71 SW3       29.95R
ALMA           CLOUDY    55  46  70 SW16      29.87S
ANN ARBOR      CLEAR     48  45  89 CALM      29.92S
BAD AXE        CLEAR     51  45  79 SW6       29.85F
CARO           PTCLDY    50  44  78 SW3       29.86S
DETROIT CITY   CLEAR     57  43  59 SW6       29.92S
DETROIT        PTCLDY    54  43  66 S8        29.93S
FLINT          CLOUDY    55  42  61 SW9       29.89S
GROSSE ILE     CLEAR     59  41  51 W3        29.93S
HILLSDALE      PTCLDY    54  39  58 SW6       29.94R
HOWELL         PTCLDY    55  44  65 SW5       29.90F

CITY           SKY/WX    TMP DP  RH WIND       PRES   REMARKS
JACKSON        PTCLDY    54  42  64 SW5       29.92S
LAMBERTVILLE   CLEAR     53  46  79 CALM      29.95S
LANSING        PTCLDY    54  42  64 SW7       29.90S
LAPEER         MOCLDY    55  44  67 SW7       29.89S
MASON          CLEAR     55  43  64 S7        29.91S
MONROE         CLEAR     53  44  72 SW5       29.94R
MT. CLEMENS    PTCLDY    57  44  60 SW6       29.89S
PONTIAC        PTCLDY    56  44  64 S5        29.90S
PORT HURON     CLEAR     52  45  76 CALM      29.91S
TRI CITIES     MOCLDY    55  40  56 SW8       29.87R HAZE
MIDLAND        FAIR      52  43  70 CALM      29.84F
TROY           CLEAR     60  41  50 CALM      29.93S
SAGINAW HB     CLOUDY    52  45  76 SW12      29.86S
$$
MIZ043>046-050>051-056>058-064>065-071>073-077>080-270300-
SOUTHWEST LOWER MICHIGAN

CITY           SKY/WX    TMP DP  RH WIND       PRES   REMARKS
BATTLE CREEK   PTCLDY    53  45  74 SW8       29.92S
BENTON HARBOR  PTCLDY    65  35  33 W17G28    29.92S
BIG RAPIDS     CLOUDY    52  47  83 CALM      29.82S
COLDWATER      PTCLDY    55  39  56 SW5       29.94S
FREMONT        FAIR      56  33  40 W6        29.84S
HOLLAND        MOCLDY    65  37  35 W15G30    29.88F
GRAND RAPIDS   MOCLDY    57  41  55 CALM      29.88F
IONIA          CLOUDY    52  46  78 SW6       29.89S
KALAMAZOO      MOCLDY    56  42  59 SW6       29.92S
LUDINGTON      CLOUDY    60  41  48 W9G20     29.82S
MARSHALL       CLEAR     55  42  60 SW3       29.91F
MOUNT PLEASANT PTCLDY    55  43  64 S7        29.84S
MUSKEGON       MOCLDY    64  37  36 W20G25    29.86R
SOUTH HAVEN    MOCLDY    67  36  31 W16G25    29.91S
$$
MIZ016>042-270300-
NORTHERN LOWER MICHIGAN

CITY           SKY/WX    TMP DP  RH WIND       PRES   REMARKS
ALPENA         CLOUDY    54  42  64 SW10      29.75F
BEAVER ISLAND  CLOUDY    56  46  70 W26G35    29.67F
BELLAIRE       MIX PCPN  54  49  82 W6G16     29.75F
CADILLAC       RAIN      50  45  81 W17G24    29.80F
CHARLEVOIX     LGT RAIN  56  48  74 W23G37    29.72F
FRANKFORT      CLOUDY    59  44  56 W20G26    29.77F
GAYLORD        LGT RAIN  50  45  83 SW13      29.74F
GRAYLING       RAIN      50  47  90 SW6       29.79F
HARBOR SPRINGS RAIN      53  50  89 W16G26    29.69F
HOUGHTON LAKE  MOCLDY    53  44  71 SW13      29.80F
MANISTEE       CLOUDY    60  42  51 W23       29.79F
OSCODA         CLEAR     49  41  74 SW7       29.79S
PELLSTON       RAIN      53  48  83 SW8       29.69F
ROGERS CITY    PTCLDY    53  46  76 SW9       29.73S
TRAVERSE CITY  LGT RAIN  54  48  80 W9        29.76F
$$
MIZ007>008-015-270300-
EASTERN UPPER MICHIGAN

CITY           SKY/WX    TMP DP  RH WIND       PRES   REMARKS
KINROSS        CLOUDY    52  46  80 SW8       29.64F
MACKINAC ISLAN LGT RAIN  55  48  80 W17G24    29.65F
NEWBERRY       CLOUDY    52  46  81 SW17G24   29.62F
S. S. MARIE    MOCLDY    53  46  77 SW12      29.62F
MUNISING         N/A     52  47  83 SW10G16   29.61F
$$
MIZ004>006-011>014-085-270300-
CENTRAL UPPER MICHIGAN

CITY           SKY/WX    TMP DP  RH WIND       PRES   REMARKS
MANISTIQUE     LGT RAIN  53  45  75 W10G23    29.65F
MENOMINEE      CLOUDY    54  44  69 VRB5      29.75S
SAWYER-GWINN   LGT RAIN  48  46  93 SW12      29.63F
$$
MIZ001>003-009>011-084-270300-
WESTERN UPPER MICHIGAN

CITY           SKY/WX    TMP DP  RH WIND       PRES   REMARKS
IRON MOUNTAIN  CLOUDY    50  44  80 W14G29    29.67F
HOUGHTON       LGT RAIN  51  47  86 W26G35    29.52F
COPPER HARBOR    N/A     54  48  80 NW12G25   29.48F
IRONWOOD       LGT RAIN  49  47  93 W16       29.68F
$$

ABBREVIATIONS USED IN REMARKS
   TC - TEMPERATURE IN CELSIUS
  WCI - WIND CHILL INDEX
   HX - HEAT INDEX
  VSB - VISIBILITY




USA.gov is the U.S. government's official web portal to all federal, state and local government web resources and services.